Hourly Weather Russkoe Ilchikeevo

Today, 20 April, Tuesday

Time Temperature Precipitation Wind Pressure Humidity
00:00 -2°C° 0 mm 1 mps 737 mmHg 51%
01:00 -2°C° 0 mm 1 mps 737 mmHg 51%
02:00 -2°C° 0 mm 1 mps 738 mmHg 52%
03:00 -3°C° 0 mm 0 mps 738 mmHg 52%
04:00 -3°C° 0 mm 0 mps 738 mmHg 52%
05:00 -2°C° 0 mm 1 mps 738 mmHg 48%
06:00 -1°C° 0 mm 1 mps 739 mmHg 44%
07:00 0°C° 0 mm 1 mps 739 mmHg 41%
08:00 +1°C° 0 mm 1 mps 739 mmHg 37%
09:00 +3°C° 0 mm 1 mps 739 mmHg 33%
10:00 +3°C° 0 mm 2 mps 739 mmHg 29%
11:00 +4°C° 0 mm 2 mps 738 mmHg 29%
12:00 +6°C° 0 mm 1 mps 738 mmHg 28%
13:00 +7°C° 0 mm 1 mps 738 mmHg 28%
14:00 +7°C° 0 mm 1 mps 738 mmHg 29%
15:00 +6°C° 0 mm 2 mps 738 mmHg 30%
16:00 +6°C° 0 mm 2 mps 737 mmHg 31%
17:00 +6°C° 0 mm 1 mps 737 mmHg 36%
18:00 +5°C° 0 mm 1 mps 737 mmHg 41%
19:00 +2°C° 0 mm 0 mps 737 mmHg 46%
20:00 +3°C° 0 mm 1 mps 737 mmHg 48%
21:00 +2°C° 0 mm 1 mps 737 mmHg 49%
22:00 +1°C° 0 mm 1 mps 737 mmHg 51%
23:00 +1°C° 0 mm 1 mps 737 mmHg 52%

Tomorrow, 21 April, Wednesday

Time Temperature Precipitation Wind Pressure Humidity
00:00 +1°C° 0 mm 1 mps 737 mmHg 53%
01:00 +1°C° 0 mm 1 mps 737 mmHg 54%
02:00 +1°C° 0 mm 1 mps 737 mmHg 54%
03:00 +1°C° 0 mm 1 mps 737 mmHg 54%
04:00 +1°C° 0 mm 1 mps 737 mmHg 55%
05:00 +2°C° 0 mm 1 mps 738 mmHg 52%
06:00 +3°C° 0 mm 1 mps 738 mmHg 49%
07:00 +4°C° 0 mm 1 mps 738 mmHg 47%
08:00 +5°C° 0 mm 1 mps 738 mmHg 43%
09:00 +6°C° 0 mm 0 mps 738 mmHg 40%
10:00 +8°C° 0 mm 0 mps 738 mmHg 36%
11:00 +9°C° 0 mm 0 mps 738 mmHg 35%
12:00 +9°C° 0 mm 0 mps 738 mmHg 34%
13:00 +10°C° 0 mm 0 mps 737 mmHg 33%
14:00 +12°C° 0 mm 1 mps 737 mmHg 32%
15:00 +12°C° 0 mm 1 mps 737 mmHg 32%
16:00 +13°C° 0 mm 1 mps 737 mmHg 32%
17:00 +11°C° 0 mm 1 mps 737 mmHg 39%
18:00 +10°C° 0 mm 1 mps 737 mmHg 46%
19:00 +8°C° 0 mm 2 mps 736 mmHg 53%
20:00 +7°C° 0 mm 2 mps 737 mmHg 56%
21:00 +6°C° 0 mm 2 mps 737 mmHg 59%
22:00 +6°C° 0 mm 1 mps 737 mmHg 61%
23:00 +6°C° 0 mm 1 mps 737 mmHg 62%

Day after tomorrow, 22 April, Thursday

Time Temperature Precipitation Wind Pressure Humidity
00:00 +5°C° 0 mm 1 mps 737 mmHg 62%
01:00 +5°C° 0 mm 1 mps 737 mmHg 63%
02:00 +4°C° 0 mm 1 mps 737 mmHg 63%
03:00 +4°C° 0 mm 1 mps 737 mmHg 63%
04:00 +4°C° 0 mm 1 mps 738 mmHg 63%
05:00 +4°C° 0 mm 1 mps 738 mmHg 61%
06:00 +5°C° 0 mm 1 mps 738 mmHg 59%
07:00 +6°C° 0 mm 1 mps 738 mmHg 57%
08:00 +6°C° 0 mm 2 mps 738 mmHg 50%
09:00 +8°C° 0 mm 2 mps 738 mmHg 43%
10:00 +9°C° 0 mm 3 mps 738 mmHg 37%
11:00 +9°C° 0 mm 3 mps 738 mmHg 38%
12:00 +9°C° 0 mm 3 mps 738 mmHg 39%
13:00 +9°C° 0 mm 3 mps 738 mmHg 40%
14:00 +10°C° 0 mm 4 mps 738 mmHg 38%
15:00 +11°C° 0 mm 4 mps 738 mmHg 36%
16:00 +11°C° 0 mm 4 mps 737 mmHg 34%
17:00 +10°C° 0 mm 4 mps 737 mmHg 40%
18:00 +9°C° 0 mm 3 mps 737 mmHg 46%
19:00 +8°C° 0 mm 2 mps 737 mmHg 51%
20:00 +7°C° 0 mm 2 mps 737 mmHg 54%
21:00 +6°C° 0 mm 2 mps 737 mmHg 57%
22:00 +6°C° 0 mm 1 mps 737 mmHg 60%
23:00 +6°C° 0.1 mm 1 mps 737 mmHg 65%

23 April, Friday

Time Temperature Precipitation Wind Pressure Humidity
00:00 +6°C° 0.1 mm 1 mps 737 mmHg 71%
01:00 +5°C° 0.1 mm 2 mps 737 mmHg 76%
02:00 +4°C° 0.4 mm 2 mps 737 mmHg 81%
03:00 +4°C° 0.4 mm 2 mps 737 mmHg 85%
04:00 +4°C° 0.4 mm 2 mps 737 mmHg 90%
05:00 +4°C° 0.3 mm 2 mps 737 mmHg 88%
06:00 +4°C° 0.3 mm 2 mps 736 mmHg 86%
07:00 +4°C° 0.3 mm 2 mps 736 mmHg 84%
08:00 +5°C° 0 mm 2 mps 736 mmHg 80%
09:00 +5°C° 0 mm 3 mps 736 mmHg 76%
10:00 +7°C° 0 mm 3 mps 736 mmHg 73%
11:00 +7°C° 0 mm 3 mps 736 mmHg 71%
12:00 +8°C° 0 mm 3 mps 736 mmHg 70%
13:00 +8°C° 0 mm 3 mps 736 mmHg 68%
14:00 +9°C° 0 mm 2 mps 736 mmHg 67%
15:00 +9°C° 0 mm 2 mps 735 mmHg 65%
16:00 +9°C° 0 mm 2 mps 735 mmHg 63%
17:00 +10°C° 0 mm 1 mps 735 mmHg 69%
18:00 +9°C° 0 mm 1 mps 735 mmHg 74%
19:00 +8°C° 0 mm 1 mps 734 mmHg 80%
20:00 +8°C° 0 mm 1 mps 734 mmHg 81%
21:00 +8°C° 0 mm 1 mps 734 mmHg 82%
22:00 +8°C° 0 mm 1 mps 734 mmHg 83%
23:00 +7°C° 0.5 mm 1 mps 733 mmHg 86%

24 April, Saturday

Time Temperature Precipitation Wind Pressure Humidity
00:00 +7°C° 0.5 mm 1 mps 733 mmHg 89%
01:00 +7°C° 0.5 mm 1 mps 733 mmHg 92%
02:00 +7°C° 0.2 mm 1 mps 732 mmHg 92%
03:00 +7°C° 0.2 mm 1 mps 732 mmHg 92%
04:00 +6°C° 0.2 mm 1 mps 731 mmHg 92%
05:00 +6°C° 0.1 mm 1 mps 731 mmHg 92%
06:00 +6°C° 0.1 mm 1 mps 730 mmHg 92%
07:00 +5°C° 0.1 mm 2 mps 730 mmHg 91%
08:00 +6°C° 0.1 mm 2 mps 730 mmHg 88%
09:00 +5°C° 0.1 mm 3 mps 729 mmHg 86%
10:00 +7°C° 0.1 mm 3 mps 729 mmHg 83%
11:00 +5°C° 0.4 mm 3 mps 728 mmHg 84%
12:00 +5°C° 0.4 mm 3 mps 728 mmHg 85%
13:00 +5°C° 0.4 mm 3 mps 728 mmHg 86%
14:00 +5°C° 0.2 mm 3 mps 727 mmHg 87%
15:00 +6°C° 0.2 mm 2 mps 727 mmHg 88%
16:00 +6°C° 0.2 mm 2 mps 726 mmHg 89%
17:00 +6°C° 0.2 mm 2 mps 726 mmHg 90%
18:00 +6°C° 0.2 mm 2 mps 726 mmHg 92%
19:00 +6°C° 0.2 mm 2 mps 725 mmHg 93%
20:00 +6°C° 0 mm 2 mps 725 mmHg 92%
21:00 +6°C° 0 mm 2 mps 725 mmHg 92%
22:00 +6°C° 0 mm 2 mps 724 mmHg 91%
23:00 +5°C° 0 mm 2 mps 724 mmHg 91%

25 April, Sunday

Time Temperature Precipitation Wind Pressure Humidity
00:00 +5°C° 0 mm 2 mps 724 mmHg 92%
01:00 +5°C° 0 mm 2 mps 723 mmHg 92%
02:00 +4°C° 0.1 mm 2 mps 723 mmHg 93%
03:00 +4°C° 0.1 mm 2 mps 723 mmHg 95%
04:00 +5°C° 0.1 mm 1 mps 723 mmHg 96%
05:00 +5°C° 0.1 mm 1 mps 723 mmHg 96%
06:00 +5°C° 0.1 mm 1 mps 724 mmHg 97%
07:00 +5°C° 0.1 mm 1 mps 724 mmHg 97%
08:00 +5°C° 0.1 mm 1 mps 724 mmHg 97%
09:00 +5°C° 0.1 mm 1 mps 724 mmHg 96%
10:00 +5°C° 0.1 mm 1 mps 724 mmHg 96%
11:00 +4°C° 0 mm 2 mps 725 mmHg 95%
12:00 +5°C° 0 mm 2 mps 725 mmHg 94%
13:00 +5°C° 0 mm 2 mps 725 mmHg 93%
14:00 +6°C° 0 mm 2 mps 725 mmHg 86%
15:00 +7°C° 0 mm 2 mps 725 mmHg 80%
16:00 +9°C° 0 mm 2 mps 725 mmHg 73%
17:00 +8°C° 0 mm 2 mps 724 mmHg 76%
18:00 +8°C° 0 mm 2 mps 724 mmHg 78%
19:00 +8°C° 0 mm 2 mps 724 mmHg 80%
20:00 +8°C° 0.4 mm 3 mps 724 mmHg 82%
21:00 +8°C° 0.4 mm 3 mps 724 mmHg 84%
22:00 +7°C° 0.4 mm 4 mps 724 mmHg 86%
23:00 +7°C° 0.1 mm 3 mps 725 mmHg 84%
Show more